KIRCHDORF Weather Reports


time (UTC)temp
C
wind
direction
speed
KPH
gust
KPH
rain 1hr
cm
rain 24hr
cm
rain mn
cm
humidity
%
barometer
mb
20260507013212 7 144 16.1 0.0 0.00 0.00 0.00 93 1011.4
20260507010211 7 187 9.7 0.0 0.00 0.00 0.00 93 1011.5
20260507003209 7 176 8.0 0.0 0.00 0.00 0.00 92 1011.5
20260507000209 7 244 6.4 0.0 0.00 0.00 0.00 91 1011.6
20260506233209 8 236 14.5 0.0 0.00 0.00 0.00 91 1011.4
20260506230209 8 242 12.9 0.0 0.00 0.00 0.00 91 1011.2
20260506223209 8 200 11.3 0.0 0.00 0.00 0.00 91 1011.3
20260506213209 8 221 9.7 0.0 0.00 0.00 0.61 91 1011.1
20260506210210 8 208 9.7 0.0 0.00 0.00 0.61 90 1010.9
20260506203210 9 262 16.1 0.0 0.00 0.00 0.61 90 1010.7
20260506200210 9 257 11.3 0.0 0.00 0.00 0.61 91 1010.6
20260506193215 9 255 11.3 0.0 0.00 0.00 0.61 90 1010.5
20260506190211 9 188 12.9 0.0 0.00 0.00 0.61 89 1009.9
20260506183209 10 229 19.3 0.0 0.00 0.00 0.61 87 1009.7
20260506180216 10 248 24.1 0.0 0.00 0.00 0.61 88 1009.2
20260506173210 10 251 22.5 0.0 0.00 0.00 0.61 88 1008.9
20260506170215 10 248 22.5 0.0 0.00 0.00 0.61 87 1008.2
20260506163210 10 269 25.7 0.0 0.00 0.00 0.61 89 1008.6
20260506160210 10 227 32.2 0.0 0.00 0.00 0.61 90 1008.4
20260506153210 11 284 32.2 0.0 0.00 0.00 0.61 90 1007.8
20260506150210 15 223 37.0 0.0 0.00 0.00 0.05 76 1006.4
20260506143210 16 217 8.0 0.0 0.00 0.00 0.05 71 1005.5
20260506140210 15 186 12.9 0.0 0.00 0.00 0.05 80 1005.6
20260506133211 16 190 8.0 0.0 0.00 0.00 0.00 66 1006.1
20260506130211 17 234 4.8 0.0 0.00 0.00 0.00 62 1006.0
20260506123210 17 86 8.0 0.0 0.00 0.00 0.00 60 1005.6
20260506120210 17 48 14.5 0.0 0.00 0.00 0.00 62 1005.3
20260506113217 17 31 11.3 0.0 0.00 0.00 0.00 63 1005.7
20260506110210 16 79 11.3 0.0 0.00 0.00 0.00 61 1006.1
20260506100213 15 26 8.0 0.0 0.00 0.00 0.00 67 1006.6
20260506093211 15 206 3.2 0.0 0.00 0.00 0.00 70 1006.7
20260506090211 15 196 4.8 0.0 0.00 0.00 0.00 76 1006.8
20260506083211 13 355 3.2 0.0 0.00 0.00 0.00 81 1006.6
20260506080212 12 32 4.8 0.0 0.00 0.00 0.00 82 1006.6
20260506073211 12 219 1.6 0.0 0.00 0.00 0.00 84 1006.9
20260506070212 12 204 6.4 0.0 0.00 0.00 0.00 86 1007.1
20260506060210 10 209 4.8 0.0 0.00 0.00 0.00 92 1006.9
20260506050211 8 129 4.8 0.0 0.00 0.00 0.00 95 1007.3
20260506043211 8 182 11.3 0.0 0.00 0.00 0.00 95 1007.5
20260506040211 8 232 3.2 0.0 0.00 0.00 0.00 94 1007.8
20260506033211 8 181 9.7 0.0 0.00 0.00 0.00 95 1008.0
20260506030212 8 200 9.7 0.0 0.00 0.00 0.00 95 1008.3
20260506023211 8 179 9.7 0.0 0.00 0.00 0.00 95 1008.4
20260506020212 9 160 11.3 0.0 0.00 0.00 0.00 95 1008.7